Location: Busskirch
(47.2189°N, 8.8331°E)
Time: 14:13:24
(UTC+00:00)

Daily predictions for brighter satellites

Satellite Brightness Start Highest point End
(mag) Time Altitude Azimuth Time Altitude Azimuth Time Altitude Azimuth
Cosmos 1825 2.2 18:50:26 10° N 18:54:11 64° ENE 18:57:56 10° SSE
Exosat Rocket 3.8 18:51:17 10° NNW 18:57:43 80° ENE 19:02:49 10° SSE
MetOp-A 4.2 18:52:51 10° SSE 18:58:12 87° ENE 19:03:36 10° NNW
CZ-4C R/B 4.2 18:53:51 10° W 18:58:33 31° NNW 19:04:09 10° NNE
Cosmos 2227 Rocket 3.3 18:54:23 10° SSE 18:58:36 22° E 19:02:50 10° NE
Abrixas rocket 0.2 18:57:21 10° WSW 18:58:55 74° SSE 19:00:29 10° ENE
BREEZE-M DEB (TANK) 3.6 18:57:34 10° WSW 19:00:29 88° SSE 19:07:48 10° ENE
ATLAS 2AS CENTAUR R/B 3.5 18:52:40 10° SW 19:00:34 69° NW 19:08:18 10° NE
Cosmos 1092 Rocket 4.1 18:54:53 10° N 19:01:11 87° W 19:07:21 10° S
Cosmos 2058 2.9 18:59:37 10° N 19:03:50 77° E 19:07:59 10° SSE
Cosmos 2297 Rocket 2.9 19:00:11 10° SSE 19:05:04 31° ESE 19:09:59 10° NE
FALCON 9 DEB 4.2 19:03:46 10° S 19:06:07 20° SE 19:08:27 10° E
Cosmos 1633 3.9 19:03:32 10° NNE 19:06:26 22° ENE 19:09:14 10° SE
Cosmos 405 3.9 19:03:43 10° SSW 19:07:06 53° WNW 19:10:33 10° N
Lacrosse 5 rocket 3.6 19:04:14 10° NW 19:07:29 22° N 19:10:53 10° NE
FALCON 9 DEB 3.8 19:08:09 10° SSW 19:10:44 26° SE 19:13:20 10° E
Resurs 01 Rocket 2.5 19:08:48 10° SE 19:12:45 33° ENE 19:16:45 10° N
Cosmos 2219 3.8 19:09:15 10° SSE 19:14:11 33° ESE 19:19:10 10° NE
Genesis I 4.0 19:10:28 10° NNW 19:14:16 40° NE 19:17:40 12° ESE
Resurs 1-3 3.8 19:10:09 10° SSE 19:14:25 54° ENE 19:18:42 10° N
BREEZE-M DEB (TANK) 3.6 19:11:56 10° WSW 19:15:39 83° NNW 19:28:34 10° ENE
Cosmos 2333 Rocket 3.6 19:11:06 10° NW 19:16:23 39° WSW 19:21:38 10° S
SJ-6B 2.8 19:14:39 10° S 19:18:22 77° WSW 19:22:11 10° NNW
CZ-2C R/B 4.1 19:15:45 10° N 19:20:36 41° WNW 19:25:30 10° SW
Cosmos 2084 Rocket 4.1 19:18:53 10° S 19:22:17 28° ESE 19:25:45 10° ENE
FALCON 9 DEB 3.4 19:19:58 10° SSW 19:22:45 35° SE 19:25:34 10° ENE
Cosmos 389 Rocket 2.5 19:19:25 10° S 19:22:52 56° E 19:26:24 10° NNE
ERS-2 3.4 19:19:28 10° N 19:22:58 45° WNW 19:26:26 10° SW
Ariane Rocket 3.0 19:19:45 10° SSE 19:24:48 81° ENE 19:29:53 10° NNW
Cosmos 614 Rocket 3.9 19:21:20 10° SSW 19:26:28 83° ESE 19:31:36 10° NNE
Terra 4.0 19:26:36 10° ENE 19:27:37 11° NE 19:28:37 10° NE
Cosmos 2251 Rocket 3.9 19:22:55 10° SSW 19:28:16 73° WNW 19:33:37 10° NNE
FALCON 9 DEB 4.1 19:26:04 10° W 19:29:24 47° NNW 19:32:45 10° ENE
ATLAS 3B R/B 3.4 19:24:10 10° NW 19:31:00 55° WSW 19:38:06 10° SSE
Cosmos 2279 Rocket 3.9 19:26:57 10° S 19:33:05 73° E 19:39:18 10° NNE
SPOT 1/Viking Rocket 4.4 19:33:40 16° ESE 19:37:16 35° ENE 19:41:58 10° N
MOS 1 4.4 19:32:31 10° SSE 19:38:10 79° WSW 19:43:51 10° NNW
Cosmos 1980 3.8 19:33:17 10° NNW 19:39:00 85° WSW 19:44:12 13° SSE
Cosmos-2242 3.6 19:35:48 13° SSE 19:39:15 36° E 19:43:12 10° NNE
SL-16 R/B 3.0 19:34:15 10° NNW 19:39:35 38° NE 19:43:26 17° ESE
USA 215 3.8 19:34:16 10° E 19:40:29 53° NNE 19:46:48 10° NW
Cosmos 2151 3.1 19:36:42 10° N 19:40:58 55° ENE 19:44:09 17° SSE
FALCON 9 DEB 3.1 19:41:35 10° SW 19:44:31 45° SE 19:46:41 16° ENE
SPOT 3 Rocket 3.6 19:40:39 14° SSE 19:45:04 65° ENE 19:50:13 10° N
Cosmos 1455 4.4 19:44:01 10° SW 19:47:14 27° WNW 19:50:29 10° NNW
COSMOS 2455 3.5 19:43:05 10° S 19:48:18 32° ESE 19:53:32 10° NE
SL-4 R/B 2.3 19:47:13 10° SW 19:51:27 52° SE 19:55:59 10° ENE
Cosmos 2219 Rocket 4.3 19:48:47 10° NW 19:53:13 24° WSW 19:57:38 10° SSW
BREEZE M DEB (TANK) 4.3 19:51:27 10° SSW 19:54:53 36° SE 20:03:59 10° ENE
ERS-1 Rocket 4.2 19:53:54 19° ESE 19:56:13 26° ENE 20:00:21 10° N
IGS 5A 3.4 19:54:20 20° SSE 19:57:06 73° ENE 20:01:16 10° N
Cosmos 1076 Rocket 4.2 19:52:54 10° NNW 19:57:10 55° W 20:01:21 10° S
Cosmos 2266 Rocket 4.0 19:51:24 10° N 19:57:46 67° ENE 20:02:35 18° SSE
OBJECT-B 3.2 19:55:46 10° SSW 19:58:21 22° W 20:00:58 10° NW
Landsat 7 3.8 19:55:13 20° SSE 19:58:30 69° ENE 20:03:15 10° N
ATLAS 5 CENTAUR R/B 3.7 19:59:02 10° WSW 19:59:33 10° SW 20:00:08 10° SSW
Cosmos 2221 4.3 20:05:05 16° E 20:05:05 16° E 20:07:30 10° NE
ARIANE 5 R/B 3.3 20:04:04 27° ESE 20:05:51 39° ENE 20:09:56 10° N
Cosmos 2344 4.1 19:58:47 10° WSW 20:06:08 62° NW 20:14:13 10° NE
USA 245 3.4 20:05:50 35° ESE 20:06:42 42° ENE 20:09:35 10° N
Cosmos 407 Rocket 3.5 20:01:55 10° SSW 20:07:03 82° WNW 20:12:16 10° NNE
Cosmos 1023 Rocket 4.5 20:07:02 10° SSW 20:12:07 82° WNW 20:17:14 10° NNE
MetOp-B 4.1 20:09:17 22° SSE 20:12:54 85° ENE 20:18:18 10° NNW
Meteor 2-3 Rocket 3.7 20:08:00 10° NNW 20:13:48 90° E 20:17:47 21° S
Cosmos 44 Rocket 3.6 20:13:53 10° S 20:18:41 45° ESE 20:23:38 10° NE
Meteor 1-27 4.2 20:14:09 16° S 20:18:50 67° E 20:24:37 10° NNE
Cosmos 1140 Rocket 3.7 20:15:13 10° SSW 20:20:20 73° WNW 20:25:29 10° NNE
Cosmos 1954 Rocket 3.9 20:19:28 11° S 20:24:24 68° ESE 20:29:33 10° NNE
CZ-2C R/B 3.5 20:20:10 10° NNE 20:24:39 84° ESE 20:27:43 20° SSW
Cosmos 2237 Rocket 3.2 20:21:24 10° NW 20:26:38 40° WSW 20:30:48 15° S
Timation 2 Rocket 4.0 20:20:48 10° SSW 20:27:23 85° WNW 20:33:43 10° NNE
Cosmos 2263 Rocket 3.6 20:34:38 20° E 20:34:38 20° E 20:37:38 10° NE
Spot 2 Rocket 3.4 20:32:07 36° SSE 20:34:16 80° ENE 20:39:22 10° NNW
CARTOSAT-1 3.6 20:33:28 46° SE 20:34:34 66° ENE 20:38:52 10° N
Cosmos 1766 Rocket 3.4 20:30:41 10° N 20:35:02 85° ENE 20:36:22 45° SSE
USA 229 DEB 4.5 20:28:10 10° NW 20:35:07 47° NE 20:39:35 23° E
BREEZE M DEB (TANK) 2.5 20:28:23 10° WSW 20:35:25 75° NNW 20:36:34 36° ENE
FALCON 9 DEB 3.2 20:38:37 10° WSW 20:41:38 64° NNW 20:41:38 64° NNW
Cosmos 2227 Rocket 2.6 20:36:31 10° SW 20:42:08 65° WNW 20:47:48 10° NNE
Cosmos 2082 3.5 20:37:15 13° SSW 20:42:13 73° ESE 20:47:51 10° NNE
Okean 3 Rocket 3.6 20:39:40 10° NNW 20:44:13 79° W 20:45:39 43° S
H-2A R/B 4.4 20:41:35 10° NNE 20:44:42 32° ENE 20:44:42 32° ENE
FALCON 9 DEB 3.5 20:43:20 10° W 20:46:19 52° NNW 20:46:28 51° N
Lacrosse 5 rocket 3.1 20:43:57 10° NW 20:47:42 29° NNE 20:49:58 19° ENE
Cosmos 2297 Rocket 3.2 20:43:29 10° SW 20:48:55 47° NW 20:54:23 10° NNE
Cosmos 1869 3.4 20:47:58 44° SSW 20:49:07 73° W 20:53:04 10° N
Resurs 01 Rocket 3.3 20:46:10 14° SSW 20:49:15 29° W 20:53:09 10° NW
Cosmos 1553 Rocket 4.4 20:48:26 37° ESE 20:49:37 41° E 20:55:17 10° NNE
Cosmos 468 Rocket 3.9 20:45:16 10° NNW 20:50:26 78° ENE 20:51:46 50° SE
Meteor 1-4 Rocket 2.5 20:50:30 67° WSW 20:50:46 71° WNW 20:54:19 10° N
NOSS 3-1 (A) 4.4 20:46:03 10° NW 20:53:10 54° NE 20:57:37 28° ESE
Cosmos 841 Rocket 4.1 20:50:15 10° N 20:55:13 42° ENE 20:56:15 38° E
Cosmos 2219 4.3 20:52:51 10° SW 20:58:12 44° NW 21:03:35 10° NNE
FALCON 9 DEB 4.0 20:55:30 10° W 20:58:12 42° NNW 20:58:12 42° NNW
Cosmos 1763 Rocket 3.3 20:58:10 10° NNW 21:03:16 86° WSW 21:04:17 58° SSE
Terra 1.7 21:03:52 61° ESE 21:04:28 69° ENE 21:09:13 10° N
Cosmos 540 Rocket 3.5 21:05:57 10° NNW 21:11:03 63° ENE 21:11:41 57° E
Cosmos 921 Rocket 3.7 21:08:16 10° N 21:12:21 42° ENE 21:12:21 42° ENE
SPOT 5 2.8 21:14:08 60° SSW 21:14:49 70° WSW 21:19:39 10° NNW
NOSS 3-1 (C) 4.0 21:09:40 10° NW 21:17:09 89° SW 21:20:23 43° SE
Meteor 2-2 Rocket 4.1 21:15:41 50° S 21:17:18 86° E 21:23:01 10° NNE
Cosmos 1842 Rocket 3.5 21:20:27 84° WSW 21:20:31 85° W 21:25:02 10° N
USA 215 3.2 21:21:35 49° SSE 21:23:23 69° SW 21:29:56 10° NW
SL-16 R/B 3.1 21:18:27 10° NW 21:23:43 39° WSW 21:25:19 32° SW
SL-08 ROCKET BODY 4.3 21:24:21 10° N 21:30:27 89° W 21:31:36 61° S
SL-4 R/B 2.8 21:26:42 10° W 21:31:11 60° NNW 21:33:32 28° NE
COSMOS 2455 3.5 21:28:06 10° SW 21:33:58 54° NW 21:39:54 10° NNE
Cosmos 1408 Rocket 4.3 21:30:33 10° NNW 21:34:40 44° W 21:34:52 43° W
ERS-1 Rocket 3.6 21:33:52 41° SW 21:34:46 46° W 21:39:37 10° NNW
Cosmos 2227 4.2 21:40:45 65° E 21:40:45 65° E 21:46:16 10° NNE
Cosmos 1862 4.4 21:38:11 10° NNW 21:41:30 39° WNW 21:41:30 39° WNW
Cosmos 2221 3.1 21:41:54 50° W 21:41:57 50° WNW 21:46:08 10° N
ARIANE 5 R/B 4.4 21:41:36 22° WSW 21:42:25 23° W 21:45:57 10° NW
Sich 1 3.9 21:38:16 10° N 21:41:28 41° NE 21:41:28 41° NE
Cosmos 1805 Rocket 4.1 21:38:27 10° N 21:41:58 53° NNE 21:41:58 53° NNE
Meteor 1-20 Rocket 4.4 21:42:04 10° N 21:47:47 57° ENE 21:48:01 56° E
Cosmos 1943 3.0 21:44:11 10° NNW 21:49:51 88° ENE 21:50:06 82° SE
Cosmos 1745 Rocket 3.9 21:46:13 10° N 21:52:33 87° W 21:53:25 69° S
SeaSat 1 3.7 21:48:28 10° NE 21:51:19 30° ENE 21:51:19 30° ENE
Cosmos 1570 Rocket 3.9 21:48:02 10° NNW 21:53:15 87° NNW 21:53:15 87° NNW
Cosmos 1743 Rocket 4.3 21:49:21 10° NNW 21:53:02 49° WNW 21:53:02 49° WNW
Cosmos 1709 Rocket 4.0 21:51:35 10° N 21:57:45 63° ENE 21:58:09 61° E
Spot 4 4.4 22:00:15 51° NE 22:00:15 51° NE 22:04:30 10° N
Cosmos 1633 Rocket 4.3 21:59:14 10° N 22:02:12 34° NE 22:02:12 34° NE
Cosmos 1606 4.3 22:06:55 33° NNW 22:06:55 33° NNW 22:09:16 10° N
S3M 4.0 22:05:24 64° SSW 22:06:27 79° W 22:12:53 10° N
Cosmos 883 Rocket 4.4 22:06:43 70° ESE 22:06:55 70° E 22:13:11 10° NNE
Cosmos 1666 Rocket 4.5 22:09:42 10° N 22:12:59 45° NNE 22:12:59 45° NNE
Cosmos 2263 Rocket 2.4 22:16:15 59° W 22:16:55 64° WNW 22:22:28 10° NNE
Aureole 1 Rocket 4.4 22:17:34 38° W 22:18:44 44° WNW 22:23:03 10° N
Cosmos 968 Rocket 4.4 22:22:53 39° ENE 22:22:53 39° ENE 22:26:28 10° NNE
USA 229 DEB 4.1 22:19:10 10° NW 22:26:19 56° WSW 22:27:01 54° SW
USA 229 4.1 22:19:16 10° NW 22:26:25 56° WSW 22:27:08 54° SW
Lacrosse 5 rocket 2.8 22:22:56 10° NW 22:25:35 36° NW 22:25:35 36° NW
Cosmos 1844 Rocket 3.9 22:30:56 31° ENE 22:30:56 31° ENE 22:34:18 10° NE
Cosmos 1151 Rocket 4.4 22:34:17 35° NNE 22:34:17 35° NNE 22:36:52 10° NNE
ALOS 2 3.7 22:35:37 42° N 22:35:37 42° N 22:38:40 10° N
Terra 4.0 22:42:44 15° W 22:42:44 15° W 22:45:32 10° NW
NOSS 3-1 (A) 4.4 22:37:00 10° NW 22:44:19 50° WSW 22:45:03 49° SW
Meteor 1-5 Rocket 4.4 22:56:25 10° N 23:01:31 67° NNE 23:01:31 67° NNE
Cosmos 2154 Rocket 4.4 22:57:42 10° N 23:03:56 53° ENE 23:04:10 53° E
Meteor 1-14 Rocket 4.4 22:59:01 10° NNW 23:04:37 73° WNW 23:04:37 73° WNW
SL-4 R/B 4.0 23:06:49 10° WNW 23:09:09 28° NW 23:09:09 28° NW
NOSS 2-2 (C) 4.4 23:09:41 10° NW 23:14:35 76° WNW 23:14:35 76° WNW
Cosmos 2184 Rocket 3.9 23:08:44 10° N 23:14:58 86° NNE 23:14:58 86° NNE
SJ 16-02 4.1 23:17:22 11° ENE 23:17:22 11° ENE 23:17:40 10° ENE
Cosmos 2278 Rocket 4.2 23:19:29 17° E 23:19:29 17° E 23:22:02 10° ENE
ATLAS 5 CENTAUR R/B 3.3 23:19:46 10° NNW 23:24:50 41° NE 23:27:06 30° E
SeaSat 1 3.7 23:26:11 10° NNE 23:30:36 33° NW 23:31:05 33° WNW
Cosmos 1241 Rocket 4.4 23:33:02 87° E 23:33:02 87° E 23:39:37 10° NE
Cosmos 1844 3.9 23:41:40 71° NNW 23:41:40 71° NNW 23:46:57 10° NNE
Cosmos 2074 Rocket 4.2 23:35:19 10° NNW 23:41:12 58° W 23:41:12 58° W
USA 281 3.1 23:43:08 72° ESE 23:43:47 80° ENE 23:50:24 10° NNW
Cosmos 1503 Rocket 4.5 23:44:44 57° NNW 23:44:44 57° NNW 23:49:02 10° NNE
COSMOS 2406 4.0 23:38:38 10° NNW 23:44:05 45° NE 23:44:55 42° E
Gbstr 26 Del rocket 4.2 23:53:47 54° E 23:53:47 54° E 23:58:05 10° ENE
Cosmos 962 Rocket 4.5 23:46:17 10° N 23:52:29 71° E 23:52:36 71° E
